Change the Weather History Date:

Friday, April 19, 2013

  Actual Average Record
Temperature  
Mean Temperature 36 °F -  
Max Temperature 45 °F 64 °F 91 °F (1985)
Min Temperature 28 °F 42 °F 26 °F (1988)
Degree Days  
Heating Degree Days 28    
Moisture  
Dew Point 24 °F    
Average Humidity 63    
Maximum Humidity 79    
Minimum Humidity 45    
Precipitation  
Precipitation 0.00 in - - ()
Sea Level Pressure  
Sea Level Pressure 29.96 in    
Wind  
Wind Speed 20 mph (NW)    
Max Wind Speed 26 mph    
Max Gust Speed 32 mph    
Visibility 10 miles    
Events      
Averages and records for this station are not official NWS values.
T = Trace of Precipitation, MM = Missing Value Source: NWS Daily Summary

Daily Weather History Graph

Daily Weather History Graph

Search for Another Location

Airport or City:

Trip Planner

Search our weather history database for the weather conditions in past years. The results will help you decide how hot, cold, wet, or windy it might be!

Date:

Astronomy

Apr. 19, 2013 Rise Set
Actual Time 6:37 AM CDT 8:10 PM CDT
Civil Twilight 6:08 AM CDT 8:39 PM CDT
Nautical Twilight 5:33 AM CDT 9:14 PM CDT
Astronomical Twilight 4:56 AM CDT 9:52 PM CDT
Moon 1:50 PM CDT (4/19) 2:59 AM CDT (4/19)
Length of Visible Light 14h 30m
Length of Day
13h 32m
First Quarter, 62% of the Moon is Illuminated
Apr 19
First Quarter
Apr 25
Full
May 2
Last Quarter
May 9
New
May 17
First Quarter

Hourly Weather History & Observations

Time (CDT) Temp. Windchill Dew Point Humidity Pressure Visibility Wind Dir Wind Speed Gust Speed Precip Events Conditions
12:38 AM 33.8 °F 21.0 °F 26.6 °F 75% 29.86 in 10.0 mi WNW 25.3 mph 31.1 mph 0.00 in   Mostly Cloudy
12:54 AM 33.1 °F 21.2 °F 26.1 °F 75% 29.88 in 10.0 mi NW 20.7 mph 31.1 mph 0.00 in   Scattered Clouds
1:54 AM 32.0 °F 19.8 °F 23.0 °F 69% 29.87 in 10.0 mi NW 20.7 mph 27.6 mph N/A   Clear
2:54 AM 30.9 °F 18.4 °F 21.9 °F 69% 29.86 in 10.0 mi WNW 20.7 mph 29.9 mph N/A   Clear
3:54 AM 30.9 °F 18.7 °F 21.0 °F 67% 29.86 in 10.0 mi WNW 19.6 mph - N/A   Clear
4:54 AM 30.0 °F 16.9 °F 21.0 °F 69% 29.86 in 10.0 mi WNW 21.9 mph 29.9 mph N/A   Clear
5:54 AM 28.9 °F 16.5 °F 19.9 °F 69% 29.88 in 10.0 mi WNW 18.4 mph 27.6 mph N/A   Clear
6:54 AM 28.9 °F 16.1 °F 19.0 °F 67% 29.89 in 10.0 mi WNW 19.6 mph 28.8 mph N/A   Clear
7:54 AM 30.0 °F 17.5 °F 19.9 °F 66% 29.91 in 10.0 mi WNW 19.6 mph - N/A   Clear
8:54 AM 32.0 °F 20.1 °F 21.9 °F 66% 29.92 in 10.0 mi WNW 19.6 mph - N/A   Clear
9:54 AM 34.0 °F 23.4 °F 24.1 °F 67% 29.93 in 10.0 mi WNW 17.3 mph 24.2 mph N/A   Clear
10:54 AM 37.0 °F 26.4 °F 24.1 °F 59% 29.94 in 10.0 mi WNW 20.7 mph 27.6 mph N/A   Clear
11:54 AM 39.9 °F 30.0 °F 26.1 °F 58% 29.95 in 10.0 mi WNW 21.9 mph 31.1 mph N/A   Clear
12:54 PM 42.1 °F 32.1 °F 27.0 °F 55% 29.96 in 10.0 mi WNW 25.3 mph 32.2 mph N/A   Clear
1:54 PM 44.1 °F 35.4 °F 27.0 °F 51% 29.96 in 10.0 mi NW 21.9 mph 31.1 mph N/A   Clear
2:54 PM 45.0 °F 35.8 °F 28.0 °F 52% 29.98 in 10.0 mi NW 26.5 mph 32.2 mph N/A   Partly Cloudy
3:54 PM 45.0 °F 36.2 °F 26.1 °F 48% 29.99 in 10.0 mi NW 24.2 mph 31.1 mph N/A   Partly Cloudy
4:54 PM 44.1 °F 35.4 °F 24.1 °F 45% 30.01 in 10.0 mi NW 21.9 mph 32.2 mph N/A   Scattered Clouds
5:54 PM 43.0 °F 33.8 °F 24.1 °F 47% 30.02 in 10.0 mi NW 23.0 mph 31.1 mph N/A   Clear
6:54 PM 43.0 °F 34.2 °F 24.1 °F 47% 30.04 in 10.0 mi NNW 20.7 mph 27.6 mph N/A   Partly Cloudy
7:54 PM 39.9 °F 32.1 °F 24.1 °F 53% 30.06 in 10.0 mi NW 13.8 mph - N/A   Clear
8:54 PM 34.0 °F 28.0 °F 25.0 °F 70% 30.09 in 10.0 mi NW 6.9 mph - N/A   Clear
9:54 PM 33.1 °F 27.7 °F 25.0 °F 72% 30.12 in 10.0 mi NNW 5.8 mph - N/A   Clear
10:54 PM 32.0 °F 24.8 °F 25.0 °F 75% 30.12 in 10.0 mi NNW 8.1 mph - N/A   Clear
11:54 PM 30.9 °F 24.3 °F 25.0 °F 79% 30.12 in 10.0 mi NNW 6.9 mph - N/A   Clear